Terminal Aerodrome Forecast
Issued by NWS Blacksburg, VA

Current Version | Previous Version | Graphics & Text | Print | Product List | Glossary On
Versions: 1 2 3 4 5 6 7 8 9 10 11 12 13 14 15 16 17 18 19 20 21 22 23 24 25 26 27 28 29 30 31 32 33 34 35 36 37 38 39 40 41 42 43 44 45 46 47 48 49
000
FTUS41 KRNK 180539
TAFBLF
TAF
KBLF 180539Z 1806/1906 27010KT P6SM BKN022
     FM181400 30013G23KT P6SM OVC025
     FM181700 30012G22KT P6SM BKN040
     FM190000 30009KT P6SM OVC050
     FM190400 31007KT P6SM VCSH OVC025=

USA.gov is the U.S. government's official web portal to all federal, state and local government web resources and services.